< < Back
Terminal Aerodrome Forecast


Current Version              Previous Versions:   1  2  3  4  5  6  7  8  9  

Terminal Aerodrome Forecast

084
FTUS42 KMLB 240800 AAA
TAFDAB
TAF AMD
KDAB 240812Z 2408/2506 20006KT P6SM SCT008 SCT250
     FM240900 20005KT P6SM OVC008
      TEMPO 2411/2413 5SM BR OVC005
     FM241400 20008KT P6SM SCT015
     FM241700 21010KT P6SM BKN035
     FM250100 21003KT P6SM SCT040 BKN250=



Latest METAR

584
SAUS80 KWBC 242000 RRA
MTRDAB
METAR KDAB 241953Z 21011KT 10SM FEW038 FEW045 SCT250 31/21 A2991 RMK AO2
SLP126 T03060211


USA.gov is the U.S. government's official web portal to all federal, state and local government web resources and services.